Location: Unspecified
(48.8656°N, 0.0000°E)
Time: 17:58:41
(UTC+00:00)

Transit 2A Rocket - Pass Details

Date: 18 June 2019
Orbit: 588 x 915 km, 66.7° (Epoch: 17 July)

Event Time Altitude Azimuth Distance (km) Brightness Sun altitude
Rises 15:05:49 0° 298° (WNW) 3,511 8.8 45.8°
Reaches altitude 10° 15:09:58 10° 325° (NW) 2,521 8.0 45.2°
Maximum altitude 15:12:37 13° 352° (N) 2,265 7.5 44.8°
Drops below altitude 10° 15:15:12 10° 20° (NNE) 2,436 7.4 44.4°
Sets 15:19:04 0° 48° (NE) 3,289 7.9 43.7°
